Location: D�rnast
(49.6426°N, 11.9755°E)
Time: 06:26:08
(UTC+00:00)

BlueWalker 3 - Pass Details

Date: 08 December 2022
Orbit: 499 x 517 km, 53.2° (Epoch: 28 January)

Event Time Altitude Azimuth Distance (km) Brightness Sun altitude
Rises 15:43:39 0° 287° (WNW) 2,637 6.3 -5.1°
Reaches altitude 10° 15:45:54 10° 292° (WNW) 1,745 5.3 -5.5°
Maximum altitude 15:49:48 56° 11° (N) 619 2.2 -6.0°
Drops below altitude 10° 15:53:39 10° 90° (E) 1,729 4.1 -6.6°
Enters shadow 15:54:43 - 93° (E) 2,148 4.6 -6.7°
